Temp
-9 -9 -9 -9 -8 -8 -8 -8 -8 -8 -8 -8 -8 -8 -8 -8 -7 -8 -8 -8 -7 -7 -8 -8 -8 -8 -8 -8 -9 -8 -8 -9 -9 -8 -8 -7 -7 -7 -7 -7 -6 -6 -6 -6 -6 -6 -6 -6 -6
-9 -9 -9 -9 -9 -8 -8 -8 -8 -8 -8 -8 -8 -8 -8 -8 -8 -8 -8 -8 -8 -7 -7 -8 -8 -8 -8 -8 -8 -8 -8 -8 -9 -9 -8 -8 -7 -7 -7 -7 -7 -6 -6 -6 -6 -6 -6 -6 -6
-9 -9 -9 -9 -9 -9 -9 -9 -9 -8 -8 -8 -8 -8 -8 -8 -8 -8 -8 -8 -8 -8 -8 -7 -8 -8 -8 -8 -8 -9 -9 -9 -8 -9 -9 -8 -8 -8 -7 -7 -7 -7 -7 -6 -6 -6 -6 -6 -6
-9 -9 -9 -9 -9 -9 -9 -9 -9 -9 -9 -8 -8 -9 -9 -8 -8 -8 -8 -8 -8 -8 -8 -8 -8 -8 -8 -8 -8 -8 -8 -9 -9 -9 -8 -9 -9 -8 -8 -8 -8 -7 -7 -7 -7 -6 -6 -6 -6
-10 -10 -10 -10 -9 -9 -9 -9 -9 -9 -9 -9 -9 -9 -9 -9 -9 -9 -9 -8 -8 -8 -8 -8 -8 -8 -8 -8 -8 -8 -8 -8 -9 -9 -8 -8 -8 -8 -9 -8 -8 -8 -8 -7 -7 -7 -7 -7 -6
-9 -9 -10 -10 -9 -10 -10 -9 -10 -9 -9 -9 -9 -9 -9 -9 -9 -8 -8 -9 -9 -9 -9 -9 -8 -8 -8 -8 -8 -8 -8 -8 -8 -9 -9 -9 -8 -8 -8 -9 -8 -8 -8 -8 -7 -7 -7 -7 -7
-10 -10 -10 -10 -9 -9 -9 -9 -9 -10 -9 -9 -9 -9 -9 -9 -9 -9 -9 -9 -9 -9 -9 -9 -9 -9 -9 -9 -8 -8 -8 -8 -8 -8 -9 -9 -9 -9 -9 -9 -9 -9 -8 -8 -8 -8 -7 -7 -7
-10 -10 -10 -10 -9 -9 -9 -9 -9 -10 -10 -9 -9 -9 -9 -9 -9 -9 -9 -9 -9 -9 -9 -9 -9 -9 -9 -9 -9 -9 -8 -8 -8 -8 -9 -9 -9 -9 -9 -9 -9 -9 -9 -9 -8 -8 -8 -8 -8
-10 -10 -10 -10 -9 -10 -10 -10 -10 -10 -10 -10 -10 -10 -10 -9 -9 -9 -9 -9 -9 -9 -9 -9 -9 -9 -9 -9 -9 -9 -9 -9 -9 -9 -9 -9 -9 -9 -9 -9 -9 -9 -9 -9 -9 -9 -8 -8 -8
-10 -10 -10 -10 -10 -10 -10 -10 -10 -10 -10 -10 -9 -9 -10 -10 -10 -10 -10 -10 -10 -10 -10 -9 -10 -9 -9 -9 -9 -9 -9 -9 -9 -9 -9 -9 -9 -9 -9 -10 -10 -9 -10 -9 -9 -9 -9 -9 -8
-11 -11 -11 -10 -10 -10 -11 -11 -10 -10 -10 -10 -10 -10 -10 -11 -10 -10 -10 -10 -9 -9 -9 -9 -9 -9 -9 -9 -9 -9 -9 -9 -9 -9 -9 -9 -9 -9 -9 -9 -9 -9 -10 -10 -10 -9 -9 -9 -9
-11 -11 -11 -11 -11 -11 -11 -11 -11 -11 -10 -10 -10 -10 -10 -10 -10 -10 -10 -10 -10 -10 -10 -10 -10 -10 -10 -10 -10 -9 -10 -9 -9 -9 -9 -9 -9 -9 -9 -9 -9 -10 -10 -11 -10 -10 -10 -9 -9
-12 -12 -12 -11 -11 -11 -11 -11 -11 -11 -11 -10 -11 -10 -10 -10 -10 -10 -10 -11 -10 -10 -10 -10 -10 -10 -10 -10 -10 -10 -10 -10 -10 -9 -9 -9 -9 -9 -9 -9 -10 -10 -10 -10 -10 -10 -10 -10 -10
-13 -12 -12 -12 -11 -11 -11 -11 -11 -11 -11 -11 -11 -11 -10 -10 -10 -10 -10 -10 -10 -10 -10 -10 -10 -10 -10 -10 -10 -10 -10 -10 -10 -10 -10 -10 -9 -9 -10 -9 -10 -10 -10 -10 -11 -11 -11 -11 -10
-13 -13 -13 -12 -12 -12 -12 -11 -12 -12 -11 -11 -11 -11 -11 -11 -10 -10 -10 -11 -10 -10 -10 -10 -10 -10 -10 -10 -10 -10 -10 -10 -10 -10 -10 -10 -9 -10 -10 -9 -9 -10 -10 -10 -11 -11 -11 -11 -11
-14 -13 -13 -13 -13 -12 -12 -12 -12 -12 -12 -12 -12 -12 -11 -11 -11 -11 -11 -10 -10 -10 -10 -10 -10 -10 -10 -10 -10 -10 -10 -10 -10 -10 -10 -10 -10 -10 -9 -10 -10 -10 -10 -10 -10 -11 -11 -11 -11
-14 -14 -14 -13 -13 -13 -12 -12 -12 -13 -12 -12 -13 -12 -12 -12 -12 -11 -11 -10 -10 -10 -10 -10 -10 -11 -11 -11 -11 -11 -10 -10 -10 -10 -10 -10 -10 -10 -10 -9 -10 -10 -10 -10 -10 -11 -11 -11 -11
-15 -14 -14 -14 -13 -13 -13 -12 -13 -13 -12 -13 -13 -13 -12 -12 -11 -11 -11 -11 -11 -11 -11 -11 -11 -11 -11 -11 -11 -11 -11 -11 -11 -10 -10 -10 -10 -10 -10 -10 -10 -10 -10 -10 -10 -10 -11 -11 -11
-15 -14 -14 -14 -14 -14 -13 -13 -13 -14 -12 -12 -12 -12 -11 -12 -12 -12 -12 -12 -12 -12 -11 -12 -12 -12 -11 -11 -11 -11 -11 -11 -11 -11 -10 -10 -10 -10 -10 -10 -10 -10 -9 -10 -10 -10 -10 -10 -10
-16 -16 -16 -15 -15 -14 -14 -13 -14 -14 -13 -13 -12 -12 -12 -12 -12 -12 -12 -12 -12 -12 -12 -12 -12 -12 -12 -11 -11 -11 -11 -11 -11 -11 -11 -11 -10 -10 -10 -10 -10 -10 -10 -10 -10 -10 -10 -10 -11
-17 -16 -16 -15 -15 -14 -14 -14 -14 -14 -13 -14 -13 -13 -13 -13 -12 -12 -12 -12 -12 -12 -12 -12 -12 -12 -12 -12 -11 -11 -11 -11 -11 -11 -11 -11 -11 -11 -11 -10 -10 -10 -10 -10 -10 -10 -10 -10 -10
-16 -16 -15 -15 -15 -15 -14 -13 -14 -14 -14 -14 -14 -13 -13 -13 -12 -12 -12 -13 -13 -13 -13 -12 -12 -12 -12 -12 -12 -12 -11 -11 -11 -11 -11 -11 -11 -11 -11 -11 -10 -10 -10 -10 -10 -10 -10 -10 -10
-16 -16 -16 -15 -15 -15 -15 -14 -13 -14 -14 -14 -14 -13 -13 -13 -13 -13 -13 -14 -14 -14 -14 -14 -14 -13 -13 -13 -13 -13 -13 -12 -11 -11 -11 -11 -11 -11 -11 -11 -11 -11 -11 -10 -11 -10 -10 -10 -10
-16 -16 -16 -16 -15 -15 -15 -15 -14 -14 -14 -14 -14 -14 -14 -14 -14 -14 -14 -14 -14 -14 -14 -14 -15 -14 -14 -14 -14 -13 -13 -13 -13 -12 -12 -11 -12 -12 -12 -11 -11 -11 -11 -11 -11 -11 -11 -11 -11
-17 -16 -16 -16 -16 -16 -15 -15 -15 -15 -15 -14 -15 -15 -14 -14 -14 -14 -13 -13 -13 -14 -14 -15 -16 -16 -16 -16 -15 -14 -13 -13 -13 -13 -12 -12 -12 -12 -12 -12 -12 -12 -12 -11 -11 -11 -11 -11 -11
-17 -17 -16 -16 -16 -16 -16 -16 -16 -16 -16 -15 -15 -15 -14 -13 -13 -13 -14 -14 -14 -14 -15 -16 -17 -18 -17 -17 -16 -15 -14 -14 -14 -13 -13 -13 -13 -13 -13 -13 -12 -12 -12 -12 -12 -11 -11 -11 -11
-17 -17 -17 -17 -17 -17 -17 -16 -16 -16 -15 -15 -14 -14 -14 -14 -14 -15 -15 -15 -14 -14 -15 -16 -16 -17 -18 -17 -16 -15 -15 -15 -15 -15 -14 -14 -13 -13 -13 -13 -13 -13 -12 -12 -12 -12 -12 -11 -11
-17 -18 -18 -18 -17 -16 -16 -16 -16 -15 -15 -14 -14 -15 -14 -15 -15 -15 -15 -15 -14 -13 -13 -15 -15 -16 -16 -16 -15 -15 -15 -16 -16 -16 -16 -16 -15 -14 -14 -13 -13 -13 -13 -12 -12 -12 -12 -12 -12
-18 -18 -17 -17 -17 -16 -16 -15 -15 -14 -15 -15 -15 -15 -15 -15 -15 -15 -15 -14 -14 -13 -13 -13 -15 -16 -16 -15 -15 -15 -15 -15 -15 -15 -15 -16 -15 -15 -15 -14 -14 -14 -13 -13 -13 -12 -12 -13 -13
-18 -17 -17 -16 -16 -16 -15 -15 -14 -14 -15 -15 -15 -15 -15 -15 -15 -15 -15 -14 -14 -14 -14 -13 -13 -14 -14 -14 -15 -15 -15 -15 -15 -15 -15 -15 -15 -16 -16 -16 -16 -16 -16 -15 -15 -15 -15 -15 -14
Height
5845 5848 5851 5854 5860 5861 5863 5866 5868 5870 5872 5873 5874 5875 5876 5876 5877 5881 5879 5879 5880 5880 5880 5880 5880 5882 5882 5885 5886 5886 5887 5888 5889 5890 5892 5893 5892 5893 5894 5894 5893 5893 5893 5893 5893 5892 5891 5890 5890
5841 5844 5847 5850 5854 5856 5860 5863 5866 5868 5868 5870 5873 5873 5874 5875 5875 5876 5878 5879 5880 5880 5879 5880 5880 5881 5881 5883 5884 5885 5886 5887 5887 5888 5890 5891 5892 5892 5893 5893 5893 5892 5893 5893 5892 5893 5892 5892 5891
5836 5840 5844 5847 5849 5851 5856 5860 5862 5864 5865 5867 5870 5871 5871 5873 5873 5875 5876 5878 5879 5879 5879 5879 5879 5880 5880 5881 5882 5883 5883 5885 5886 5887 5888 5889 5890 5891 5891 5891 5892 5892 5891 5891 5892 5892 5892 5891 5891
5831 5835 5839 5841 5844 5848 5853 5855 5858 5859 5861 5862 5865 5868 5868 5869 5870 5872 5874 5875 5876 5877 5878 5878 5878 5879 5879 5880 5881 5880 5881 5883 5884 5885 5886 5887 5888 5889 5890 5890 5890 5890 5890 5890 5890 5890 5891 5890 5890
5825 5829 5833 5836 5839 5844 5847 5850 5853 5855 5856 5858 5861 5863 5864 5865 5867 5869 5871 5872 5873 5874 5876 5876 5877 5877 5877 5878 5879 5879 5879 5880 5881 5881 5883 5884 5886 5887 5888 5889 5889 5889 5888 5888 5889 5889 5889 5889 5889
5822 5825 5829 5831 5833 5837 5841 5844 5849 5851 5852 5855 5857 5859 5860 5862 5863 5864 5866 5868 5869 5870 5872 5873 5874 5875 5875 5876 5877 5878 5878 5878 5878 5879 5880 5881 5882 5883 5884 5885 5887 5887 5887 5887 5887 5887 5887 5887 5887
5817 5821 5824 5826 5828 5831 5836 5839 5841 5845 5847 5851 5854 5855 5856 5857 5858 5859 5861 5863 5865 5867 5868 5869 5870 5871 5872 5873 5874 5875 5875 5875 5876 5876 5877 5877 5879 5879 5880 5881 5882 5883 5884 5885 5885 5885 5885 5885 5885
5813 5816 5820 5822 5825 5828 5831 5834 5837 5840 5841 5844 5847 5850 5850 5852 5854 5855 5857 5858 5860 5862 5863 5864 5865 5866 5868 5869 5870 5871 5873 5873 5873 5873 5874 5874 5875 5876 5877 5878 5879 5879 5879 5880 5881 5882 5882 5882 5882
5808 5811 5815 5818 5820 5825 5828 5831 5832 5834 5835 5837 5840 5843 5844 5847 5849 5851 5852 5853 5854 5856 5857 5859 5860 5861 5863 5864 5865 5867 5868 5869 5870 5870 5870 5871 5872 5873 5873 5874 5875 5875 5875 5875 5876 5877 5878 5878 5878
5801 5806 5810 5813 5815 5820 5824 5826 5827 5829 5831 5833 5835 5837 5838 5840 5841 5843 5843 5844 5846 5849 5851 5853 5855 5856 5857 5858 5860 5861 5862 5864 5865 5865 5866 5867 5868 5868 5869 5870 5871 5870 5869 5870 5871 5872 5872 5873 5874
5796 5801 5804 5808 5811 5815 5819 5821 5822 5824 5826 5829 5830 5832 5833 5834 5835 5836 5837 5839 5841 5842 5843 5845 5847 5850 5851 5852 5853 5854 5856 5858 5859 5860 5861 5862 5863 5864 5864 5864 5865 5864 5863 5864 5865 5867 5867 5868 5869
5791 5795 5799 5803 5805 5807 5811 5814 5816 5818 5819 5822 5825 5826 5828 5829 5832 5832 5832 5833 5834 5835 5835 5836 5838 5841 5844 5846 5847 5847 5848 5850 5853 5854 5855 5856 5857 5858 5859 5859 5859 5859 5860 5859 5858 5860 5862 5863 5863
5785 5790 5793 5796 5798 5800 5803 5807 5811 5813 5813 5816 5818 5820 5821 5822 5823 5826 5827 5827 5827 5828 5828 5829 5830 5832 5834 5837 5839 5840 5841 5843 5844 5846 5848 5850 5850 5852 5853 5853 5854 5854 5853 5851 5851 5853 5855 5856 5858
5779 5782 5786 5789 5792 5795 5798 5800 5803 5805 5808 5808 5810 5812 5813 5814 5815 5818 5818 5820 5820 5821 5821 5821 5822 5823 5824 5826 5828 5831 5833 5835 5836 5838 5840 5842 5843 5845 5846 5847 5848 5849 5848 5846 5845 5847 5849 5850 5852
5770 5774 5778 5783 5785 5788 5791 5793 5796 5798 5799 5801 5802 5803 5804 5805 5806 5807 5809 5811 5811 5813 5813 5812 5813 5814 5815 5816 5817 5819 5822 5825 5828 5829 5831 5832 5835 5838 5839 5839 5841 5842 5843 5843 5841 5842 5844 5844 5845
5764 5768 5772 5775 5778 5781 5783 5787 5787 5789 5791 5792 5793 5793 5794 5796 5798 5798 5799 5800 5801 5802 5803 5804 5804 5805 5806 5807 5808 5810 5811 5814 5817 5819 5822 5823 5826 5828 5831 5832 5834 5835 5835 5837 5839 5838 5838 5839 5840
5757 5762 5765 5768 5771 5774 5777 5780 5778 5779 5780 5782 5783 5783 5785 5787 5787 5788 5787 5788 5789 5791 5793 5794 5795 5795 5795 5796 5797 5799 5801 5803 5805 5807 5811 5813 5816 5818 5820 5824 5826 5827 5828 5829 5831 5833 5833 5834 5834
5751 5754 5758 5761 5764 5765 5767 5769 5770 5770 5771 5773 5774 5774 5774 5775 5775 5777 5778 5779 5780 5780 5781 5782 5782 5781 5782 5784 5786 5788 5789 5792 5794 5797 5799 5801 5804 5808 5810 5813 5815 5818 5819 5821 5823 5825 5825 5827 5828
5745 5748 5750 5752 5755 5756 5758 5761 5764 5761 5760 5760 5762 5762 5763 5764 5766 5767 5767 5768 5768 5768 5768 5768 5767 5767 5768 5771 5773 5775 5778 5780 5782 5786 5788 5791 5793 5795 5799 5801 5805 5807 5809 5812 5813 5814 5817 5819 5820
5737 5740 5743 5744 5746 5747 5749 5752 5752 5751 5750 5749 5751 5753 5755 5755 5755 5754 5753 5752 5751 5750 5750 5750 5751 5753 5754 5754 5757 5760 5763 5767 5770 5773 5777 5779 5782 5784 5787 5789 5793 5796 5798 5801 5803 5804 5807 5809 5810
5730 5733 5734 5737 5738 5738 5740 5743 5742 5742 5742 5743 5743 5743 5743 5743 5742 5740 5739 5737 5735 5734 5733 5733 5734 5736 5737 5737 5738 5741 5745 5752 5756 5759 5762 5765 5767 5770 5773 5775 5778 5782 5785 5788 5791 5794 5795 5798 5801
5724 5727 5728 5730 5732 5732 5732 5733 5735 5735 5735 5735 5735 5735 5734 5733 5731 5729 5726 5723 5719 5718 5715 5714 5714 5715 5717 5717 5720 5722 5726 5733 5739 5742 5745 5748 5752 5756 5760 5762 5764 5769 5771 5775 5777 5780 5783 5784 5788
5720 5720 5722 5724 5725 5725 5726 5725 5725 5727 5727 5726 5726 5725 5723 5721 5719 5715 5710 5705 5701 5697 5694 5691 5690 5691 5692 5693 5696 5701 5707 5713 5718 5723 5728 5732 5736 5740 5745 5748 5751 5754 5758 5761 5764 5766 5769 5772 5775
5715 5716 5718 5718 5719 5719 5719 5719 5718 5717 5716 5716 5717 5716 5714 5709 5704 5700 5696 5691 5686 5680 5675 5671 5668 5666 5665 5668 5672 5678 5686 5692 5698 5703 5709 5714 5719 5723 5727 5731 5736 5740 5743 5746 5749 5751 5754 5759 5761
5711 5712 5713 5714 5713 5712 5710 5709 5710 5709 5708 5707 5708 5707 5702 5700 5695 5693 5688 5682 5674 5667 5660 5653 5644 5640 5640 5644 5649 5655 5664 5672 5679 5683 5689 5695 5701 5707 5711 5714 5719 5725 5727 5729 5731 5734 5737 5741 5744
5708 5709 5708 5706 5707 5706 5703 5701 5701 5699 5699 5701 5700 5700 5698 5694 5691 5687 5680 5672 5662 5653 5644 5632 5622 5618 5621 5627 5635 5643 5650 5654 5659 5664 5669 5675 5681 5687 5691 5696 5700 5706 5710 5713 5715 5718 5723 5725 5727
5703 5703 5703 5702 5701 5699 5698 5696 5697 5696 5697 5698 5697 5694 5692 5689 5687 5683 5674 5663 5650 5640 5631 5621 5611 5607 5609 5615 5625 5632 5637 5640 5643 5645 5651 5656 5663 5668 5673 5679 5683 5687 5692 5696 5699 5700 5705 5709 5711
5698 5699 5699 5697 5696 5695 5694 5694 5694 5694 5694 5693 5694 5693 5690 5687 5684 5678 5668 5656 5644 5634 5627 5618 5610 5606 5607 5611 5618 5624 5629 5631 5633 5634 5637 5641 5645 5650 5656 5660 5665 5669 5672 5676 5679 5682 5684 5687 5691
5696 5695 5695 5695 5694 5693 5692 5693 5693 5692 5693 5693 5692 5691 5688 5684 5679 5673 5665 5654 5643 5633 5627 5621 5615 5611 5609 5612 5616 5620 5623 5625 5627 5629 5631 5633 5635 5637 5641 5644 5647 5650 5653 5656 5657 5661 5664 5667 5671
5692 5693 5693 5693 5693 5692 5692 5694 5692 5692 5693 5692 5691 5689 5685 5682 5677 5671 5664 5655 5645 5636 5629 5626 5622 5619 5615 5614 5617 5621 5623 5625 5627 5628 5628 5628 5627 5627 5627 5629 5631 5632 5634 5636 5638 5640 5642 5646 5650
Wind_Speed
28 26 25 24 25 25 24 22 19 17 17 17 17 16 13 13 11 7 7 5 7 9 7 7 10 12 16 18 16 16 14 14 12 11 10 8 7 6 7 8 7 7 4 2 1 2 2 4 4
31 29 27 26 26 27 26 24 21 21 22 21 19 17 15 13 14 11 10 9 8 8 8 9 9 10 12 14 17 19 18 16 16 13 12 10 10 7 7 8 9 8 6 5 4 3 2 3 5
35 32 31 30 30 29 27 25 25 25 24 23 20 20 19 16 16 15 14 13 11 9 9 9 10 10 10 9 11 17 19 19 19 18 15 13 12 10 8 8 9 9 7 6 7 5 6 5 4
37 37 36 34 35 32 29 27 25 26 26 26 24 23 21 21 20 18 17 17 16 14 13 12 11 11 10 10 8 8 15 20 21 19 19 18 15 13 11 9 9 10 10 8 7 8 8 8 7
33 35 36 36 37 36 34 31 27 27 29 29 28 27 25 25 24 22 21 19 19 19 17 16 14 15 13 12 12 11 10 12 19 22 22 20 19 18 16 14 12 11 11 12 10 8 9 9 10
24 24 26 30 35 37 36 34 32 31 32 30 29 28 28 28 28 27 25 23 22 22 21 20 19 18 17 16 14 13 13 11 11 17 22 22 21 21 20 18 17 16 15 13 14 12 10 10 10
24 23 23 25 27 28 32 34 34 33 34 33 31 30 31 29 29 29 28 27 26 25 24 23 23 22 21 19 18 16 14 14 13 13 16 22 23 22 20 21 20 19 19 18 15 15 14 13 11
28 26 24 26 26 23 21 22 25 29 34 35 34 33 34 33 31 31 30 29 28 28 27 27 26 25 25 24 22 21 20 17 16 15 13 14 20 23 24 24 22 22 22 22 21 18 16 15 14
31 30 28 30 30 26 20 18 20 20 24 28 30 32 35 36 35 33 33 33 32 30 29 28 29 29 28 28 26 25 23 21 20 18 15 15 16 17 20 23 24 27 27 26 24 22 20 17 17
34 32 32 31 33 30 24 23 25 24 23 22 22 22 25 30 34 35 36 37 37 35 33 32 30 31 31 31 30 29 28 25 23 22 20 19 19 18 17 15 22 26 31 31 27 24 23 21 19
35 34 33 33 33 30 28 28 29 29 26 24 24 24 24 22 25 28 33 39 40 39 39 37 36 33 33 34 34 33 32 30 28 25 25 25 25 23 20 23 24 23 28 32 31 30 27 25 24
37 36 34 35 35 35 34 34 34 33 33 31 30 28 28 28 27 28 29 28 29 34 40 41 40 39 37 35 36 37 36 34 32 31 29 29 29 27 26 26 25 18 21 30 34 31 30 29 27
37 36 37 38 39 39 38 37 36 35 37 36 35 34 34 34 33 33 31 32 33 32 33 35 38 41 43 41 39 39 39 38 37 35 34 33 33 31 30 31 29 26 25 27 33 32 33 33 31
38 39 40 41 41 41 40 39 38 38 38 40 40 40 39 39 39 37 37 36 36 36 37 37 36 35 38 42 44 43 41 41 41 40 39 37 37 35 33 33 33 29 27 28 28 33 32 31 32
41 41 40 41 41 41 41 41 41 41 42 44 45 45 44 43 44 43 42 41 41 41 41 41 40 40 38 37 40 43 46 44 43 43 43 41 40 38 36 36 35 33 31 28 21 25 29 30 31
42 42 42 41 41 42 41 40 42 42 44 45 45 47 48 47 47 48 48 48 47 46 45 46 45 45 44 43 41 39 42 45 46 45 45 45 43 41 40 39 37 36 35 32 30 27 26 29 29
42 42 41 42 42 41 41 41 44 45 45 44 45 46 48 48 50 51 53 53 53 52 51 50 50 48 47 48 47 44 42 40 42 45 47 47 46 44 43 42 41 40 40 39 36 33 31 29 28
40 41 41 41 41 43 45 46 44 44 47 45 45 48 49 50 52 53 55 55 56 55 55 55 55 55 54 52 52 51 49 46 42 39 42 46 49 48 47 45 45 44 44 42 41 37 35 34 34
40 42 44 47 49 50 51 49 46 49 51 50 48 50 52 51 52 54 56 57 59 58 58 58 59 60 60 58 55 54 53 53 51 47 44 42 43 47 50 51 48 47 47 45 45 43 39 38 38
45 45 44 44 43 44 42 42 43 43 44 47 47 45 44 45 46 48 51 53 55 58 61 63 63 63 63 64 62 60 57 56 55 54 51 49 47 46 44 49 52 51 50 49 48 47 46 44 42
40 40 39 39 38 38 38 37 36 37 39 40 42 42 43 44 46 49 52 55 58 61 63 63 64 64 65 66 68 67 62 59 58 58 57 55 55 53 51 50 49 53 54 54 53 53 52 49 47
31 31 32 31 31 32 32 33 31 34 36 37 38 40 43 45 48 52 57 60 63 65 67 68 69 70 70 70 70 71 69 67 64 64 64 63 61 60 58 57 55 52 55 58 57 57 56 56 54
24 26 26 27 27 28 29 32 32 32 35 38 41 45 47 50 55 59 64 68 69 72 74 77 78 78 77 78 76 74 73 73 72 70 71 69 67 65 64 62 62 59 55 55 60 60 60 59 58
20 21 22 23 25 27 29 32 35 37 39 42 44 45 48 49 49 48 49 51 53 56 57 61 66 71 77 84 85 82 79 76 75 75 74 73 71 69 67 66 65 65 63 60 59 61 62 60 59
16 19 22 25 27 30 34 37 38 41 43 44 43 37 30 32 32 35 39 43 44 46 52 58 64 69 68 68 71 78 83 84 82 80 79 78 75 74 71 69 67 67 67 67 66 64 64 66 67
18 21 24 28 31 33 33 35 31 30 30 23 18 18 24 28 27 27 24 28 34 37 47 43 48 48 51 56 58 59 60 63 70 78 84 82 80 78 78 76 74 71 69 71 72 71 69 69 70
21 24 25 25 22 18 16 19 14 12 13 13 12 10 14 11 11 18 21 26 26 25 24 25 23 29 39 44 47 47 45 45 47 56 67 76 81 82 82 80 79 78 77 74 74 74 73 73 74
17 15 13 13 12 8 10 10 10 7 7 6 4 5 8 7 13 14 22 26 26 17 18 21 19 13 12 18 25 30 30 29 33 38 43 48 59 69 72 74 77 79 78 78 78 78 76 75 77
10 9 10 9 8 5 6 5 5 3 3 3 2 4 8 11 11 12 21 27 27 22 11 16 17 17 8 13 14 17 18 18 20 24 29 32 36 42 49 56 59 64 71 75 76 77 78 78 78
8 8 8 6 3 2 4 4 6 9 8 5 0 5 9 13 11 11 16 21 23 25 18 12 15 20 22 18 3 6 6 6 4 10 15 21 28 35 40 45 48 51 54 60 66 69 71 75 77
Wind_Direction
222 222 224 227 230 232 233 233 232 230 234 242 248 254 263 276 281 301 300 296 301 298 295 284 272 267 262 255 246 245 239 243 245 254 269 280 278 277 276 286 300 284 279 245 149 123 167 184 197
231 228 227 227 230 232 234 236 236 236 237 239 244 250 256 260 267 273 279 284 287 295 293 284 280 274 271 268 260 253 251 247 245 247 251 262 272 275 271 273 280 295 277 262 233 209 222 225 213
234 234 234 233 233 232 232 233 234 236 239 245 247 250 251 254 259 262 269 273 277 276 276 280 289 291 284 282 271 257 253 252 252 251 250 251 258 262 268 267 265 274 287 272 260 243 236 244 248
232 234 236 237 238 238 235 234 233 237 238 242 246 250 253 253 253 255 259 265 271 270 273 275 278 277 285 280 285 285 258 253 254 256 254 253 254 255 258 265 266 259 262 272 268 254 248 244 243
231 233 234 236 240 241 239 238 235 237 241 241 242 244 247 252 254 256 257 258 263 267 268 272 273 277 280 279 282 283 276 264 255 252 253 254 257 259 258 261 268 270 261 258 259 267 259 254 250
224 227 231 236 239 238 238 239 239 239 242 244 246 248 249 252 256 256 256 257 258 262 264 266 269 273 276 277 275 276 281 277 271 259 255 251 248 252 256 257 256 262 268 267 258 257 266 266 259
228 230 230 233 237 240 241 242 241 240 243 243 247 250 253 252 254 257 258 257 258 259 262 262 264 266 268 271 275 275 274 279 281 277 268 256 253 251 252 256 254 252 255 260 263 261 257 262 268
232 235 233 235 236 236 236 239 244 246 246 247 244 244 249 252 255 258 260 259 258 258 258 260 260 261 264 266 268 271 273 271 272 273 271 263 259 256 256 257 260 257 251 250 255 256 258 254 258
233 235 237 238 240 240 242 244 243 237 238 243 245 247 250 253 256 259 262 264 263 258 256 255 256 258 258 260 263 266 268 270 270 269 268 263 260 263 261 261 263 264 258 252 251 249 248 249 252
233 237 239 240 244 244 242 244 248 244 241 241 245 246 248 249 250 251 252 255 257 260 260 258 255 254 256 257 258 260 262 264 267 268 267 264 261 265 272 269 285 285 260 256 250 245 244 244 246
238 238 238 238 243 245 243 243 248 252 254 252 249 251 248 246 249 253 255 256 258 260 261 261 260 257 255 256 257 257 258 259 261 262 264 266 267 270 264 269 283 298 259 257 255 251 245 243 245
237 238 238 239 241 243 240 239 240 248 251 253 254 254 258 260 258 258 259 259 260 259 258 258 260 261 259 257 257 258 258 257 258 258 259 262 266 269 270 271 278 277 290 275 255 250 248 247 246
235 236 239 240 242 243 244 246 247 247 253 256 257 257 257 258 259 261 262 263 261 261 263 263 262 260 261 260 257 257 258 258 256 257 257 258 262 265 268 271 273 274 269 297 256 249 248 250 247
237 237 238 240 241 244 246 248 251 252 253 256 258 257 258 259 260 261 261 262 263 262 262 263 263 261 259 257 259 257 256 257 258 257 256 257 259 260 263 267 273 277 278 285 260 247 248 253 252
236 238 240 241 244 246 247 249 251 252 254 256 258 260 260 258 259 260 260 260 261 262 263 262 261 261 260 259 256 256 257 256 258 258 257 256 257 258 260 263 267 273 274 274 275 250 251 251 250
238 241 244 246 247 249 252 254 256 256 255 256 259 260 262 262 262 261 260 260 261 261 260 260 261 260 261 261 258 256 255 255 254 256 257 258 256 256 257 259 263 264 268 266 262 272 269 255 249
240 242 245 247 250 252 255 256 256 258 259 259 261 262 262 263 264 262 260 259 258 259 260 261 261 260 260 259 258 257 255 255 253 253 254 257 258 256 255 256 257 258 260 263 262 259 262 266 251
239 243 246 249 250 252 253 254 259 262 259 263 265 266 267 265 263 264 264 263 263 263 263 261 260 258 257 257 257 256 255 254 252 252 252 253 255 256 255 253 255 256 257 259 262 260 259 259 259
242 244 248 251 255 256 259 261 259 262 266 266 263 261 264 267 268 267 267 266 265 264 262 261 262 262 261 257 256 256 256 256 255 253 251 253 255 255 255 254 252 253 256 256 258 258 255 256 257
246 248 253 255 255 255 255 256 258 257 260 264 266 268 270 271 272 272 271 269 266 264 261 258 257 257 259 260 259 255 254 255 256 256 255 254 254 257 257 258 256 253 253 254 253 254 256 254 253
248 250 250 251 254 258 257 255 254 257 259 261 266 268 269 268 268 268 268 268 267 265 263 261 259 257 255 255 256 256 253 254 257 259 258 254 253 253 254 254 253 252 252 252 253 253 254 254 253
244 248 250 251 252 255 259 256 253 257 261 264 265 268 270 270 271 271 271 270 269 268 267 265 262 260 258 255 252 253 254 253 254 255 256 256 255 254 253 253 253 253 252 250 250 251 251 253 253
241 245 248 251 253 255 259 265 265 260 259 262 266 269 272 274 274 274 273 271 271 269 266 264 261 258 257 256 255 254 253 254 254 254 254 254 255 254 252 252 252 252 251 253 251 251 251 251 253
239 245 251 253 256 259 261 262 263 268 269 269 272 275 277 277 275 273 273 273 273 272 271 269 266 262 257 254 253 252 251 250 251 253 252 252 253 254 252 251 251 253 252 250 252 252 250 251 251
238 245 252 256 262 266 267 266 271 270 271 274 277 279 279 278 286 288 282 277 274 274 268 274 269 263 257 254 252 253 252 251 250 250 250 250 250 251 252 252 252 251 252 252 250 251 251 250 248
257 264 270 273 273 275 276 277 274 274 271 280 282 279 276 279 281 287 292 287 286 288 269 290 278 259 253 250 250 253 257 258 254 250 249 248 249 250 250 251 252 252 251 253 254 253 254 253 252
269 271 273 275 279 278 271 272 275 277 278 277 275 290 282 281 305 322 327 328 315 306 300 310 289 266 249 248 249 252 255 260 257 252 248 249 248 249 250 252 253 253 254 253 254 255 255 254 253
271 262 267 270 283 277 267 266 279 289 296 283 246 270 338 288 319 345 351 356 354 339 348 351 349 321 281 254 250 252 259 260 256 250 248 247 249 249 250 252 252 253 255 255 253 254 254 253 251
269 274 273 271 268 262 271 275 277 188 157 174 232 290 338 343 339 2 11 10 16 10 355 21 16 16 322 265 259 249 247 250 249 248 247 245 247 249 251 252 253 253 253 253 252 252 253 251 249
278 271 262 253 254 269 252 195 162 166 163 144 211 334 342 337 355 13 8 20 29 25 24 24 30 39 48 65 122 251 277 275 267 274 270 267 266 264 260 256 251 248 247 247 248 249 248 247 247